Weather History for Winnipeg, MB

Change the Weather History Date:

Tuesday, January 22, 2013

  Actual Average Record
Temperature  
Mean Temperature -16 °F -  
Max Temperature -4 °F 7 °F 30 °F (2001)
Min Temperature -29 °F -5 °F -31 °F (2011)
Degree Days  
Heating Degree Days 82    
Moisture  
Dew Point -23 °F    
Average Humidity 67    
Maximum Humidity 77    
Minimum Humidity 46    
Precipitation  
Precipitation 0.00 in - - ()
Sea Level Pressure  
Sea Level Pressure 30.32 in    
Wind  
Wind Speed 7 mph ()    
Max Wind Speed 13 mph    
Max Gust Speed -    
Visibility 14.1 miles    
Events      
Averages and records for this station are not official NWS values.
T = Trace of Precipitation, MM = Missing Value Source: Averaged Metar Reports

Daily Weather History Graph

Daily Weather History Graph

Search for Another Location

Airport:

Trip Planner

Search our weather history database for the weather conditions in past years. The results will help you decide how hot, cold, wet, or windy it might be!

Date:

Astronomy

Jan. 22, 2013 Rise Set
Actual Time 8:14 AM CST 5:07 PM CST
Civil Twilight 7:38 AM CST 5:43 PM CST
Nautical Twilight 6:58 AM CST 6:23 PM CST
Astronomical Twilight 6:20 AM CST 7:01 PM CST
Moon 1:26 PM CST (1/22) 4:41 AM CST (1/22)
Length of Visible Light 10h 05m
Length of Day
8h 53m
Waxing Gibbous, 83% of the Moon is Illuminated
Jan 22
Waxing Gibbous
Jan 26
Full
Feb 3
Last Quarter
Feb 10
New
Feb 17
First Quarter

Hourly Weather History & Observations

Time (CST) Temp. Windchill Dew Point Humidity Pressure Visibility Wind Dir Wind Speed Gust Speed Precip Events Conditions
12:00 AM -24 °F - -31 °F 52% 30.39 in 9 mi Calm Calm - -  
12:00 AM -23.8 °F -45.8 °F -29.2 °F 76% 30.38 in 15.0 mi West 10.4 mph - N/A   Clear
1:00 AM -23.8 °F -44.5 °F -29.2 °F 76% 30.38 in 15.0 mi West 9.2 mph - N/A   Partly Cloudy
2:00 AM -27.4 °F -44.1 °F -32.8 °F 75% 30.38 in 15.0 mi West 5.8 mph - N/A   Clear
3:00 AM -22.0 °F -42.3 °F -29.2 °F 69% 30.39 in 15.0 mi West 9.2 mph - N/A   Clear
4:00 AM -22.0 °F -42.3 °F -27.4 °F 76% 30.40 in 15.0 mi West 9.2 mph - N/A   Partly Cloudy
5:00 AM -22.0 °F -41.0 °F -29.2 °F 69% 30.39 in 15.0 mi West 8.1 mph - N/A   Partly Cloudy
6:00 AM -22 °F - -30 °F 50% 30.38 in 9 mi Calm Calm - -  
6:00 AM -22.0 °F - -27.4 °F 76% 30.38 in 15.0 mi West 2.3 mph - N/A   Partly Cloudy
7:00 AM -22.0 °F -41.0 °F -27.4 °F 76% 30.38 in 15.0 mi WSW 8.1 mph - N/A   Partly Cloudy
8:00 AM -20.2 °F -30.9 °F -25.6 °F 76% 30.36 in 15.0 mi SSW 3.5 mph - N/A   Scattered Clouds
9:00 AM -22.0 °F -37.7 °F -27.4 °F 76% 30.36 in 15.0 mi South 5.8 mph - N/A   Mostly Cloudy
10:00 AM -20.2 °F -38.8 °F -27.4 °F 69% 30.36 in 15.0 mi South 8.1 mph - N/A   Scattered Clouds
11:00 AM -14.8 °F -32.2 °F -23.8 °F 64% 30.35 in 15.0 mi South 8.1 mph - N/A   Mostly Cloudy
12:00 PM -14 °F - -23 °F 46% 30.34 in 9 mi Calm Calm - -  
12:00 PM -13.0 °F -30.0 °F -22.0 °F 64% 30.34 in 15.0 mi SW 8.1 mph - N/A   Mostly Cloudy
1:00 PM -11.2 °F -27.8 °F -20.2 °F 64% 30.32 in 15.0 mi SSW 8.1 mph - N/A   Mostly Cloudy
2:00 PM -9.4 °F -25.6 °F -18.4 °F 65% 30.30 in 15.0 mi SW 8.1 mph - N/A   Partly Cloudy
3:00 PM -9.4 °F -22.7 °F -18.4 °F 65% 30.30 in 15.0 mi SSW 5.8 mph - N/A   Mostly Cloudy
4:00 PM -9.4 °F -26.8 °F -18.4 °F 65% 30.28 in 15.0 mi South 9.2 mph - N/A   Mostly Cloudy
5:00 PM -9.4 °F -24.3 °F -18.4 °F 65% 30.27 in 15.0 mi South 6.9 mph - N/A   Partly Cloudy
6:00 PM -12 °F - -21 °F 48% 30.25 in 9 mi Calm Calm - -  
6:00 PM -13.0 °F -30.0 °F -18.4 °F 77% 30.25 in 15.0 mi South 8.1 mph - N/A   Partly Cloudy
7:00 PM -13.0 °F -28.6 °F -20.2 °F 70% 30.24 in 15.0 mi South 6.9 mph - N/A   Mostly Cloudy
8:00 PM -9.4 °F -27.9 °F -16.6 °F 71% 30.22 in 15.0 mi SSW 10.4 mph - N/A   Mostly Cloudy
9:00 PM -5.8 °F -23.4 °F -14.8 °F 65% 30.20 in 15.0 mi SW 10.4 mph - N/A   Mostly Cloudy
10:00 PM -4.0 °F -23.0 °F -13.0 °F 65% 30.19 in 15.0 mi WSW 12.7 mph - N/A   Mostly Cloudy
11:00 PM -5.8 °F -23.4 °F -13.0 °F 71% 30.18 in 15.0 mi WSW 10.4 mph - N/A   Scattered Clouds